CST,Max TemperatureF,Mean TemperatureF,Min TemperatureF,Max Dew PointF,MeanDew PointF,Min DewpointF,Max Humidity, Mean Humidity, Min Humidity, Max Sea Level PressureIn, Mean Sea Level PressureIn, Min Sea Level PressureIn, Max VisibilityMiles, Mean VisibilityMiles, Min VisibilityMiles, Max Wind SpeedMPH, Mean Wind SpeedMPH, Max Gust SpeedMPH,PrecipitationIn, CloudCover, Events, WindDirDegrees
2012-11-1,73,55,37,41,38,34,93,62,29,30.05,29.99,29.93,10,10,5,9,2,,0.00,0,,221
2012-11-2,80,62,44,54,45,37,87,67,37,29.97,29.94,29.89,10,10,2,10,3,16,0.00,0,,160
2012-11-3,66,56,44,52,40,34,77,55,37,30.16,30.06,29.92,10,10,6,12,7,,0.00,0,,337
2012-11-4,66,50,35,39,36,32,93,62,30,30.20,30.14,30.07,10,10,3,7,3,,0.00,0,,78
2012-11-5,60,52,44,45,40,37,81,67,45,30.07,30.03,29.98,10,10,10,14,7,24,0.00,6,,297
2012-11-6,59,49,39,39,37,28,81,66,45,30.10,30.06,30.01,10,10,7,14,6,21,0.00,3,,303
2012-11-7,59,46,33,32,28,25,75,52,29,30.16,30.11,30.07,10,10,8,17,4,23,0.00,0,,2
2012-11-8,69,53,37,41,35,28,75,53,28,30.13,30.05,29.97,10,10,10,17,7,23,0.00,0,,152
2012-11-9,73,64,55,55,51,41,77,63,53,30.02,29.95,29.90,10,10,10,18,11,28,0.00,0,,183
2012-11-10,73,66,60,54,51,48,68,59,41,30.02,29.93,29.83,10,10,10,23,13,31,0.00,0,,182
2012-11-11,66,50,33,57,45,25,93,78,64,30.22,29.95,29.80,10,9,3,21,12,31,0.28,6,Thunderstorm,268
2012-11-12,48,37,26,27,23,19,86,61,37,30.46,30.39,30.24,10,10,10,14,4,18,0.00,0,,286
2012-11-13,53,40,26,28,24,19,86,57,26,30.50,30.42,30.33,10,10,10,6,3,,0.00,0,,174
2012-11-14,55,42,28,28,26,21,86,54,26,30.42,30.35,30.28,10,10,10,7,2,,0.00,0,,161
2012-11-15,60,45,30,34,29,25,81,59,31,30.36,30.31,30.28,10,10,7,6,2,,0.00,0,,172
2012-11-16,62,46,30,34,30,27,93,57,29,30.43,30.38,30.35,10,10,5,8,1,,0.00,0,,106
2012-11-17,64,48,33,36,28,25,76,51,26,30.43,30.36,30.30,10,10,10,9,3,,0.00,0,,149
2012-11-18,66,52,39,34,28,25,61,43,24,30.32,30.27,30.20,10,10,10,12,7,16,0.00,0,,157
2012-11-19,62,54,46,45,42,34,82,66,47,30.23,30.18,30.13,10,10,9,14,7,18,0.13,4,,180
2012-11-20,68,54,41,48,41,37,93,68,37,30.22,30.18,30.14,10,10,5,10,3,,0.00,0,,287
2012-11-21,73,54,35,43,35,32,93,60,25,30.28,30.20,30.11,10,9,4,8,2,,0.00,0,,181
2012-11-22,66,57,48,48,42,36,67,54,45,30.18,30.06,29.98,10,10,9,20,7,29,0.00,2,,191
2012-11-23,55,42,30,36,24,18,70,49,34,30.42,30.36,30.20,10,10,10,21,11,29,0.00,1,,338
2012-11-24,51,37,23,21,18,12,80,48,26,30.39,30.22,30.03,10,10,10,10,3,,0.00,0,,193
2012-11-25,64,50,37,36,29,19,66,47,31,30.02,29.94,29.86,10,10,10,14,7,16,0.00,0,,187
2012-11-26,53,44,33,43,35,25,87,69,49,30.33,30.07,29.91,10,9,2,17,7,26,0.00,5,,57
2012-11-27,48,36,24,25,23,21,86,66,37,30.44,30.34,30.29,10,10,8,9,5,16,0.00,0,,27
2012-11-28,57,40,24,30,26,19,93,61,33,30.43,30.33,30.22,10,10,10,8,3,,0.00,0,,162
2012-11-29,64,50,35,34,30,27,75,50,28,30.21,30.14,30.06,10,10,10,17,7,25,0.00,0,,176
2012-11-30,66,55,44,50,42,27,88,63,46,30.14,30.09,30.05,10,10,4,13,7,16,0.00,0,,180